Time,TemperatureF,DewpointF,PressureIn,WindDirection,WindDirectionDegrees,WindSpeedMPH,WindSpeedGustMPH,Humidity,HourlyPrecipIn,Conditions,Clouds,dailyrainin,SoftwareType,DateUTC
2013-04-19 00:01:00,47.0,46.0,29.69,SSW,202,6.0,15.0,97,0.42,,,0.01,Rainwise IP-100,2013-04-19 05:01:00,
2013-04-19 00:06:00,46.0,45.0,29.69,West,270,7.0,15.0,97,0.42,,,0.04,Rainwise IP-100,2013-04-19 05:06:00,
2013-04-19 00:11:00,46.0,45.0,29.73,NNW,337,6.0,17.0,97,0.42,,,0.08,Rainwise IP-100,2013-04-19 05:11:00,
2013-04-19 00:16:00,46.0,45.0,29.73,West,270,1.0,16.0,97,0.36,,,0.10,Rainwise IP-100,2013-04-19 05:16:00,
2013-04-19 00:21:00,46.0,45.0,29.72,SW,225,4.0,12.0,97,0.24,,,0.12,Rainwise IP-100,2013-04-19 05:21:00,
2013-04-19 00:26:00,45.0,44.0,29.72,SW,225,7.0,14.0,97,0.24,,,0.14,Rainwise IP-100,2013-04-19 05:26:00,
2013-04-19 00:31:00,46.0,45.0,29.71,NW,315,1.0,9.0,97,0.18,,,0.15,Rainwise IP-100,2013-04-19 05:31:00,
2013-04-19 00:36:00,45.0,44.0,29.71,WSW,247,6.0,9.0,97,0.12,,,0.16,Rainwise IP-100,2013-04-19 05:36:00,
2013-04-19 00:41:00,46.0,45.0,29.74,WSW,247,3.0,8.0,97,0.18,,,0.18,Rainwise IP-100,2013-04-19 05:41:00,
2013-04-19 00:46:00,45.0,44.0,29.74,NW,315,8.0,12.0,97,0.18,,,0.19,Rainwise IP-100,2013-04-19 05:46:00,
2013-04-19 00:51:00,45.0,44.0,29.75,NNW,337,7.0,17.0,97,0.24,,,0.22,Rainwise IP-100,2013-04-19 05:51:00,
2013-04-19 00:56:00,45.0,44.0,29.75,SW,225,2.0,20.0,97,0.30,,,0.24,Rainwise IP-100,2013-04-19 05:56:00,
2013-04-19 01:01:00,45.0,44.0,29.75,NE,45,4.0,14.0,97,0.30,,,0.27,Rainwise IP-100,2013-04-19 06:01:00,
2013-04-19 01:06:00,44.0,43.0,29.75,SW,225,1.0,10.0,97,0.24,,,0.28,Rainwise IP-100,2013-04-19 06:06:00,
2013-04-19 01:11:00,44.0,43.0,29.76,West,270,4.0,13.0,97,0.06,,,0.28,Rainwise IP-100,2013-04-19 06:11:00,
2013-04-19 01:16:00,44.0,43.0,29.76,West,270,10.0,12.0,97,0.00,,,0.28,Rainwise IP-100,2013-04-19 06:16:00,
2013-04-19 01:21:00,44.0,43.0,29.77,SSW,202,4.0,15.0,97,0.00,,,0.28,Rainwise IP-100,2013-04-19 06:21:00,
2013-04-19 01:26:00,44.0,43.0,29.77,SSE,157,2.0,16.0,97,0.00,,,0.28,Rainwise IP-100,2013-04-19 06:26:00,
2013-04-19 01:31:00,44.0,43.0,29.76,NW,315,3.0,13.0,97,0.06,,,0.29,Rainwise IP-100,2013-04-19 06:31:00,
2013-04-19 01:36:00,44.0,43.0,29.76,WNW,292,7.0,10.0,97,0.06,,,0.29,Rainwise IP-100,2013-04-19 06:36:00,
2013-04-19 01:41:00,43.0,42.0,29.76,WNW,292,5.0,12.0,96,0.00,,,0.29,Rainwise IP-100,2013-04-19 06:41:00,
2013-04-19 01:46:00,43.0,42.0,29.80,West,270,12.0,12.0,96,0.00,,,0.29,Rainwise IP-100,2013-04-19 06:46:00,
2013-04-19 01:51:00,43.0,42.0,29.79,NW,315,7.0,15.0,96,0.00,,,0.29,Rainwise IP-100,2013-04-19 06:51:00,
2013-04-19 01:56:00,43.0,42.0,29.79,NW,315,6.0,13.0,96,0.00,,,0.29,Rainwise IP-100,2013-04-19 06:56:00,
2013-04-19 02:01:00,43.0,42.0,29.79,West,270,2.0,10.0,96,0.00,,,0.29,Rainwise IP-100,2013-04-19 07:01:00,
2013-04-19 02:06:00,43.0,42.0,29.79,WSW,247,10.0,13.0,96,0.00,,,0.29,Rainwise IP-100,2013-04-19 07:06:00,
2013-04-19 02:11:00,43.0,42.0,29.78,West,270,6.0,13.0,96,0.00,,,0.29,Rainwise IP-100,2013-04-19 07:11:00,
2013-04-19 02:16:00,43.0,42.0,29.78,NW,315,6.0,12.0,96,0.00,,,0.29,Rainwise IP-100,2013-04-19 07:16:00,
2013-04-19 02:21:00,43.0,42.0,29.78,WNW,292,8.0,11.0,96,0.00,,,0.29,Rainwise IP-100,2013-04-19 07:21:00,
2013-04-19 02:26:00,43.0,42.0,29.78,North,360,6.0,16.0,96,0.00,,,0.29,Rainwise IP-100,2013-04-19 07:26:00,
2013-04-19 02:31:00,43.0,42.0,29.77,WSW,247,0.0,9.0,96,0.00,,,0.29,Rainwise IP-100,2013-04-19 07:31:00,
2013-04-19 02:36:00,43.0,42.0,29.77,West,270,10.0,13.0,95,0.00,,,0.29,Rainwise IP-100,2013-04-19 07:36:00,
2013-04-19 02:41:00,43.0,41.0,29.79,NW,315,7.0,10.0,94,0.00,,,0.29,Rainwise IP-100,2013-04-19 07:41:00,
2013-04-19 02:46:00,42.0,40.0,29.79,SW,225,8.0,13.0,92,0.00,,,0.29,Rainwise IP-100,2013-04-19 07:46:00,
2013-04-19 02:51:00,42.0,40.0,29.79,WSW,247,9.0,13.0,92,0.00,,,0.29,Rainwise IP-100,2013-04-19 07:51:00,
2013-04-19 02:56:00,42.0,40.0,29.79,SSW,202,2.0,17.0,92,0.00,,,0.29,Rainwise IP-100,2013-04-19 07:56:00,
2013-04-19 03:01:00,42.0,40.0,29.80,NW,315,7.0,13.0,91,0.00,,,0.29,Rainwise IP-100,2013-04-19 08:01:00,
2013-04-19 03:06:00,42.0,40.0,29.80,West,270,1.0,10.0,91,0.00,,,0.29,Rainwise IP-100,2013-04-19 08:06:00,
2013-04-19 03:11:00,42.0,39.0,29.81,NW,315,9.0,13.0,90,0.00,,,0.29,Rainwise IP-100,2013-04-19 08:11:00,
2013-04-19 03:16:00,42.0,39.0,29.81,NW,315,6.0,12.0,90,0.00,,,0.29,Rainwise IP-100,2013-04-19 08:16:00,
2013-04-19 03:21:00,42.0,40.0,29.81,North,360,3.0,11.0,91,0.00,,,0.29,Rainwise IP-100,2013-04-19 08:21:00,
2013-04-19 03:26:00,42.0,39.0,29.81,WNW,292,7.0,10.0,89,0.00,,,0.29,Rainwise IP-100,2013-04-19 08:26:00,
2013-04-19 03:31:00,42.0,38.0,29.81,WSW,247,0.0,12.0,87,0.00,,,0.29,Rainwise IP-100,2013-04-19 08:31:00,
2013-04-19 03:36:00,42.0,38.0,29.81,NW,315,12.0,13.0,87,0.00,,,0.29,Rainwise IP-100,2013-04-19 08:36:00,
2013-04-19 03:41:00,42.0,39.0,29.81,NW,315,2.0,12.0,88,0.00,,,0.29,Rainwise IP-100,2013-04-19 08:41:00,
2013-04-19 03:46:00,42.0,40.0,29.81,SW,225,6.0,7.0,91,0.00,,,0.29,Rainwise IP-100,2013-04-19 08:46:00,
2013-04-19 03:51:00,42.0,39.0,29.82,West,270,5.0,12.0,88,0.00,,,0.29,Rainwise IP-100,2013-04-19 08:51:00,
2013-04-19 03:56:00,42.0,39.0,29.82,WSW,247,4.0,11.0,88,0.00,,,0.29,Rainwise IP-100,2013-04-19 08:56:00,
2013-04-19 04:01:00,42.0,39.0,29.83,NNW,337,6.0,8.0,88,0.00,,,0.29,Rainwise IP-100,2013-04-19 09:01:00,
2013-04-19 04:06:00,42.0,39.0,29.83,NNW,337,7.0,9.0,90,0.00,,,0.29,Rainwise IP-100,2013-04-19 09:06:00,
2013-04-19 04:11:00,42.0,38.0,29.82,West,270,6.0,11.0,87,0.00,,,0.29,Rainwise IP-100,2013-04-19 09:11:00,
2013-04-19 04:16:00,42.0,38.0,29.82,WNW,292,10.0,12.0,86,0.00,,,0.29,Rainwise IP-100,2013-04-19 09:16:00,
2013-04-19 04:21:00,42.0,37.0,29.83,West,270,5.0,14.0,83,0.00,,,0.29,Rainwise IP-100,2013-04-19 09:21:00,
2013-04-19 04:26:00,42.0,37.0,29.83,West,270,1.0,14.0,83,0.00,,,0.29,Rainwise IP-100,2013-04-19 09:26:00,
2013-04-19 04:31:00,42.0,37.0,29.83,WNW,292,9.0,10.0,83,0.00,,,0.29,Rainwise IP-100,2013-04-19 09:31:00,
2013-04-19 04:36:00,42.0,37.0,29.83,West,270,3.0,12.0,83,0.00,,,0.29,Rainwise IP-100,2013-04-19 09:36:00,
2013-04-19 04:41:00,42.0,37.0,29.83,West,270,5.0,13.0,83,0.00,,,0.29,Rainwise IP-100,2013-04-19 09:41:00,
2013-04-19 04:46:00,42.0,37.0,29.83,West,270,12.0,13.0,82,0.00,,,0.29,Rainwise IP-100,2013-04-19 09:46:00,
2013-04-19 04:51:00,42.0,37.0,29.83,North,360,4.0,12.0,83,0.00,,,0.29,Rainwise IP-100,2013-04-19 09:51:00,
2013-04-19 04:56:00,41.0,36.0,29.83,SW,225,4.0,9.0,82,0.00,,,0.29,Rainwise IP-100,2013-04-19 09:56:00,
2013-04-19 05:01:00,42.0,37.0,29.84,WSW,247,1.0,17.0,80,0.00,,,0.29,Rainwise IP-100,2013-04-19 10:01:00,
2013-04-19 05:02:00,42.0,37.0,29.84,WNW,292,3.0,17.0,80,0.00,,,0.29,Rainwise IP-100,2013-04-19 10:02:00,
2013-04-19 05:07:00,41.0,36.0,29.84,North,360,0.0,9.0,80,0.00,,,0.29,Rainwise IP-100,2013-04-19 10:07:00,
2013-04-19 05:12:00,41.0,36.0,29.84,West,270,13.0,13.0,80,0.00,,,0.29,Rainwise IP-100,2013-04-19 10:12:00,
2013-04-19 05:17:00,41.0,35.0,29.84,West,270,11.0,13.0,78,0.00,,,0.29,Rainwise IP-100,2013-04-19 10:17:00,
2013-04-19 05:22:00,41.0,36.0,29.84,NW,315,3.0,11.0,80,0.00,,,0.29,Rainwise IP-100,2013-04-19 10:22:00,
2013-04-19 05:27:00,41.0,36.0,29.84,West,270,1.0,7.0,81,0.00,,,0.29,Rainwise IP-100,2013-04-19 10:27:00,
2013-04-19 05:32:00,41.0,36.0,29.85,NW,315,3.0,9.0,81,0.00,,,0.29,Rainwise IP-100,2013-04-19 10:32:00,
2013-04-19 05:37:00,41.0,36.0,29.85,SW,225,3.0,4.0,82,0.00,,,0.29,Rainwise IP-100,2013-04-19 10:37:00,
2013-04-19 05:42:00,41.0,36.0,29.86,West,270,4.0,10.0,81,0.00,,,0.29,Rainwise IP-100,2013-04-19 10:42:00,
2013-04-19 05:47:00,41.0,36.0,29.86,NW,315,6.0,10.0,80,0.00,,,0.29,Rainwise IP-100,2013-04-19 10:47:00,
2013-04-19 05:52:00,41.0,36.0,29.86,SW,225,2.0,7.0,82,0.00,,,0.29,Rainwise IP-100,2013-04-19 10:52:00,
2013-04-19 05:57:00,41.0,36.0,29.86,West,270,6.0,7.0,82,0.00,,,0.29,Rainwise IP-100,2013-04-19 10:57:00,
2013-04-19 06:02:00,41.0,37.0,29.87,West,270,8.0,13.0,83,0.00,,,0.29,Rainwise IP-100,2013-04-19 11:02:00,
2013-04-19 06:07:00,41.0,36.0,29.87,SW,225,7.0,10.0,79,0.00,,,0.29,Rainwise IP-100,2013-04-19 11:07:00,
2013-04-19 06:12:00,41.0,36.0,29.86,NW,315,0.0,9.0,79,0.00,,,0.29,Rainwise IP-100,2013-04-19 11:12:00,
2013-04-19 06:17:00,41.0,35.0,29.86,NE,45,3.0,11.0,78,0.00,,,0.29,Rainwise IP-100,2013-04-19 11:17:00,
2013-04-19 06:22:00,41.0,35.0,29.87,WSW,247,3.0,16.0,76,0.00,,,0.29,Rainwise IP-100,2013-04-19 11:22:00,
2013-04-19 06:27:00,41.0,35.0,29.87,NW,315,6.0,17.0,75,0.00,,,0.29,Rainwise IP-100,2013-04-19 11:27:00,
2013-04-19 06:32:00,41.0,33.0,29.89,NNW,337,4.0,14.0,73,0.00,,,0.29,Rainwise IP-100,2013-04-19 11:32:00,
2013-04-19 06:37:00,41.0,33.0,29.89,SW,225,4.0,12.0,74,0.00,,,0.29,Rainwise IP-100,2013-04-19 11:37:00,
2013-04-19 06:42:00,41.0,35.0,29.89,WNW,292,3.0,10.0,75,0.00,,,0.29,Rainwise IP-100,2013-04-19 11:42:00,
2013-04-19 06:47:00,41.0,33.0,29.89,WSW,247,6.0,12.0,74,0.00,,,0.29,Rainwise IP-100,2013-04-19 11:47:00,
2013-04-19 06:52:00,41.0,35.0,29.90,WSW,247,2.0,9.0,75,0.00,,,0.29,Rainwise IP-100,2013-04-19 11:52:00,
2013-04-19 06:57:00,41.0,35.0,29.90,South,180,3.0,7.0,78,0.00,,,0.29,Rainwise IP-100,2013-04-19 11:57:00,
2013-04-19 07:02:00,41.0,35.0,29.91,WSW,247,0.0,10.0,75,0.00,,,0.29,Rainwise IP-100,2013-04-19 12:02:00,
2013-04-19 07:07:00,41.0,35.0,29.91,SW,225,0.0,4.0,77,0.00,,,0.29,Rainwise IP-100,2013-04-19 12:07:00,
2013-04-19 07:12:00,41.0,35.0,29.92,SW,225,0.0,3.0,78,0.00,,,0.29,Rainwise IP-100,2013-04-19 12:12:00,
2013-04-19 07:17:00,41.0,35.0,29.92,West,270,2.0,9.0,75,0.00,,,0.29,Rainwise IP-100,2013-04-19 12:17:00,
2013-04-19 07:22:00,42.0,35.0,29.91,SW,225,3.0,12.0,74,0.00,,,0.29,Rainwise IP-100,2013-04-19 12:22:00,
2013-04-19 07:27:00,42.0,35.0,29.91,SW,225,2.0,11.0,74,0.00,,,0.29,Rainwise IP-100,2013-04-19 12:27:00,
2013-04-19 07:32:00,42.0,35.0,29.92,WSW,247,3.0,12.0,74,0.00,,,0.29,Rainwise IP-100,2013-04-19 12:32:00,
2013-04-19 07:37:00,42.0,35.0,29.92,South,180,1.0,9.0,75,0.00,,,0.29,Rainwise IP-100,2013-04-19 12:37:00,
2013-04-19 07:40:00,42.0,35.0,29.92,NNE,22,3.0,9.0,75,0.00,,,0.29,Rainwise IP-100,2013-04-19 12:40:00,
2013-04-19 07:45:00,42.0,35.0,29.92,NW,315,5.0,7.0,73,0.00,,,0.29,Rainwise IP-100,2013-04-19 12:45:00,
2013-04-19 07:50:00,42.0,33.0,29.91,WNW,292,6.0,10.0,72,0.00,,,0.29,Rainwise IP-100,2013-04-19 12:50:00,
2013-04-19 07:55:00,42.0,33.0,29.91,SW,225,4.0,19.0,72,0.00,,,0.29,Rainwise IP-100,2013-04-19 12:55:00,
2013-04-19 08:00:00,43.0,35.0,29.91,West,270,8.0,15.0,70,0.00,,,0.29,Rainwise IP-100,2013-04-19 13:00:00,
2013-04-19 08:05:00,42.0,33.0,29.91,SW,225,7.0,11.0,70,0.00,,,0.29,Rainwise IP-100,2013-04-19 13:05:00,
2013-04-19 08:10:00,43.0,35.0,29.92,WSW,247,1.0,12.0,70,0.00,,,0.29,Rainwise IP-100,2013-04-19 13:10:00,
2013-04-19 08:15:00,43.0,33.0,29.92,West,270,6.0,17.0,69,0.00,,,0.29,Rainwise IP-100,2013-04-19 13:15:00,
2013-04-19 08:20:00,43.0,35.0,29.92,NW,315,6.0,10.0,70,0.00,,,0.29,Rainwise IP-100,2013-04-19 13:20:00,
2013-04-19 08:25:00,43.0,35.0,29.92,SW,225,0.0,15.0,72,0.00,,,0.29,Rainwise IP-100,2013-04-19 13:25:00,
2013-04-19 08:30:00,43.0,36.0,29.93,WSW,247,1.0,9.0,74,0.00,,,0.29,Rainwise IP-100,2013-04-19 13:30:00,
2013-04-19 08:35:00,43.0,35.0,29.93,West,270,4.0,9.0,72,0.00,,,0.29,Rainwise IP-100,2013-04-19 13:35:00,
2013-04-19 08:40:00,43.0,35.0,29.93,SW,225,3.0,14.0,71,0.00,,,0.29,Rainwise IP-100,2013-04-19 13:40:00,
2013-04-19 08:45:00,43.0,35.0,29.93,SW,225,5.0,13.0,72,0.00,,,0.29,Rainwise IP-100,2013-04-19 13:45:00,
2013-04-19 08:50:00,43.0,35.0,29.93,SSW,202,1.0,9.0,71,0.00,,,0.29,Rainwise IP-100,2013-04-19 13:50:00,
2013-04-19 08:55:00,43.0,33.0,29.93,NW,315,8.0,14.0,68,0.00,,,0.29,Rainwise IP-100,2013-04-19 13:55:00,
2013-04-19 09:00:00,43.0,35.0,29.93,South,180,1.0,17.0,71,0.00,,,0.29,Rainwise IP-100,2013-04-19 14:00:00,
2013-04-19 09:05:00,43.0,33.0,29.93,West,270,8.0,12.0,68,0.00,,,0.29,Rainwise IP-100,2013-04-19 14:05:00,
2013-04-19 09:10:00,43.0,35.0,29.93,South,180,2.0,12.0,70,0.00,,,0.29,Rainwise IP-100,2013-04-19 14:10:00,
2013-04-19 09:15:00,43.0,33.0,29.93,SSW,202,9.0,16.0,68,0.00,,,0.29,Rainwise IP-100,2013-04-19 14:15:00,
2013-04-19 09:20:00,43.0,33.0,29.93,NE,45,3.0,14.0,68,0.00,,,0.29,Rainwise IP-100,2013-04-19 14:20:00,
2013-04-19 09:25:00,43.0,35.0,29.93,NE,45,0.0,13.0,70,0.00,,,0.29,Rainwise IP-100,2013-04-19 14:25:00,
2013-04-19 09:30:00,43.0,33.0,29.93,SE,135,9.0,9.0,68,0.00,,,0.29,Rainwise IP-100,2013-04-19 14:30:00,
2013-04-19 09:35:00,43.0,35.0,29.93,WNW,292,4.0,16.0,70,0.00,,,0.29,Rainwise IP-100,2013-04-19 14:35:00,
2013-04-19 09:40:00,44.0,36.0,29.93,SSW,202,1.0,15.0,71,0.00,,,0.29,Rainwise IP-100,2013-04-19 14:40:00,
2013-04-19 09:45:00,44.0,35.0,29.93,SSW,202,4.0,9.0,69,0.00,,,0.29,Rainwise IP-100,2013-04-19 14:45:00,
2013-04-19 09:50:00,44.0,35.0,29.93,West,270,0.0,10.0,69,0.00,,,0.29,Rainwise IP-100,2013-04-19 14:50:00,
2013-04-19 09:55:00,44.0,35.0,29.93,West,270,2.0,10.0,69,0.00,,,0.29,Rainwise IP-100,2013-04-19 14:55:00,
2013-04-19 10:00:00,44.0,35.0,29.94,NW,315,3.0,10.0,68,0.00,,,0.29,Rainwise IP-100,2013-04-19 15:00:00,
2013-04-19 10:05:00,44.0,35.0,29.94,WSW,247,3.0,11.0,69,0.00,,,0.29,Rainwise IP-100,2013-04-19 15:05:00,
2013-04-19 10:10:00,44.0,35.0,29.94,ESE,112,3.0,12.0,69,0.00,,,0.29,Rainwise IP-100,2013-04-19 15:10:00,
2013-04-19 10:15:00,43.0,33.0,29.94,South,180,1.0,13.0,67,0.00,,,0.29,Rainwise IP-100,2013-04-19 15:15:00,
2013-04-19 10:20:00,44.0,35.0,29.95,NW,315,3.0,10.0,69,0.00,,,0.29,Rainwise IP-100,2013-04-19 15:20:00,
2013-04-19 10:25:00,43.0,33.0,29.95,West,270,9.0,11.0,68,0.00,,,0.29,Rainwise IP-100,2013-04-19 15:25:00,
2013-04-19 10:30:00,43.0,33.0,29.95,West,270,6.0,12.0,68,0.00,,,0.29,Rainwise IP-100,2013-04-19 15:30:00,
2013-04-19 10:35:00,43.0,32.0,29.95,West,270,8.0,13.0,66,0.00,,,0.29,Rainwise IP-100,2013-04-19 15:35:00,
2013-04-19 10:40:00,43.0,35.0,29.95,SW,225,6.0,13.0,70,0.00,,,0.29,Rainwise IP-100,2013-04-19 15:40:00,
2013-04-19 10:45:00,43.0,33.0,29.95,SW,225,4.0,13.0,67,0.00,,,0.29,Rainwise IP-100,2013-04-19 15:45:00,
2013-04-19 10:50:00,43.0,32.0,29.96,West,270,9.0,11.0,66,0.00,,,0.29,Rainwise IP-100,2013-04-19 15:50:00,
2013-04-19 10:55:00,43.0,33.0,29.96,SSW,202,6.0,12.0,68,0.00,,,0.29,Rainwise IP-100,2013-04-19 15:55:00,
2013-04-19 11:00:00,43.0,33.0,29.96,West,270,2.0,14.0,68,0.00,,,0.29,Rainwise IP-100,2013-04-19 16:00:00,
2013-04-19 11:05:00,44.0,35.0,29.97,SSW,202,2.0,9.0,70,0.00,,,0.29,Rainwise IP-100,2013-04-19 16:05:00,
2013-04-19 11:10:00,44.0,35.0,29.97,SSW,202,3.0,8.0,68,0.00,,,0.29,Rainwise IP-100,2013-04-19 16:10:00,
2013-04-19 11:15:00,44.0,35.0,29.97,SW,225,3.0,10.0,68,0.00,,,0.29,Rainwise IP-100,2013-04-19 16:15:00,
2013-04-19 11:20:00,44.0,33.0,29.97,SW,225,7.0,14.0,66,0.00,,,0.29,Rainwise IP-100,2013-04-19 16:20:00,
2013-04-19 11:25:00,44.0,33.0,29.97,SW,225,8.0,14.0,64,0.00,,,0.29,Rainwise IP-100,2013-04-19 16:25:00,
2013-04-19 11:30:00,44.0,33.0,29.97,WSW,247,4.0,15.0,65,0.00,,,0.29,Rainwise IP-100,2013-04-19 16:30:00,
2013-04-19 11:35:00,44.0,33.0,29.98,SW,225,9.0,14.0,64,0.00,,,0.29,Rainwise IP-100,2013-04-19 16:35:00,
2013-04-19 11:40:00,44.0,33.0,29.98,SSW,202,3.0,17.0,65,0.00,,,0.29,Rainwise IP-100,2013-04-19 16:40:00,
2013-04-19 11:45:00,44.0,33.0,29.98,West,270,2.0,16.0,66,0.00,,,0.29,Rainwise IP-100,2013-04-19 16:45:00,
2013-04-19 11:50:00,44.0,33.0,29.98,NW,315,2.0,16.0,64,0.00,,,0.29,Rainwise IP-100,2013-04-19 16:50:00,
2013-04-19 11:55:00,44.0,33.0,29.98,WNW,292,6.0,12.0,65,0.00,,,0.29,Rainwise IP-100,2013-04-19 16:55:00,
2013-04-19 12:00:00,45.0,33.0,29.98,SSW,202,8.0,10.0,64,0.00,,,0.29,Rainwise IP-100,2013-04-19 17:00:00,
2013-04-19 12:05:00,44.0,32.0,29.98,SW,225,9.0,10.0,63,0.00,,,0.29,Rainwise IP-100,2013-04-19 17:05:00,
2013-04-19 12:10:00,44.0,33.0,29.99,SSW,202,3.0,16.0,66,0.00,,,0.29,Rainwise IP-100,2013-04-19 17:10:00,
2013-04-19 12:15:00,44.0,33.0,29.99,SW,225,0.0,13.0,66,0.00,,,0.29,Rainwise IP-100,2013-04-19 17:15:00,
2013-04-19 12:20:00,44.0,33.0,29.99,WNW,292,7.0,12.0,65,0.00,,,0.29,Rainwise IP-100,2013-04-19 17:20:00,
2013-04-19 12:25:00,44.0,33.0,29.99,West,270,5.0,12.0,66,0.00,,,0.29,Rainwise IP-100,2013-04-19 17:25:00,
2013-04-19 12:30:00,45.0,35.0,29.99,SSW,202,6.0,8.0,65,0.00,,,0.29,Rainwise IP-100,2013-04-19 17:30:00,
2013-04-19 12:35:00,45.0,33.0,29.98,South,180,4.0,13.0,62,0.00,,,0.29,Rainwise IP-100,2013-04-19 17:35:00,
2013-04-19 12:40:00,45.0,32.0,29.97,WSW,247,7.0,13.0,61,0.00,,,0.29,Rainwise IP-100,2013-04-19 17:40:00,
2013-04-19 12:45:00,44.0,32.0,29.97,SSW,202,1.0,14.0,62,0.00,,,0.29,Rainwise IP-100,2013-04-19 17:45:00,
2013-04-19 12:50:00,45.0,33.0,29.98,South,180,4.0,11.0,64,0.00,,,0.29,Rainwise IP-100,2013-04-19 17:50:00,
2013-04-19 12:55:00,45.0,33.0,29.98,SW,225,7.0,8.0,62,0.00,,,0.29,Rainwise IP-100,2013-04-19 17:55:00,
2013-04-19 13:00:00,45.0,33.0,29.97,South,180,7.0,14.0,62,0.00,,,0.29,Rainwise IP-100,2013-04-19 18:00:00,
2013-04-19 13:05:00,44.0,32.0,29.97,SW,225,7.0,13.0,61,0.00,,,0.29,Rainwise IP-100,2013-04-19 18:05:00,
2013-04-19 13:10:00,45.0,33.0,29.98,SW,225,2.0,10.0,63,0.00,,,0.29,Rainwise IP-100,2013-04-19 18:10:00,
2013-04-19 13:15:00,45.0,33.0,29.98,SSE,157,6.0,9.0,63,0.00,,,0.29,Rainwise IP-100,2013-04-19 18:15:00,
2013-04-19 13:20:00,45.0,32.0,29.98,West,270,2.0,15.0,61,0.00,,,0.29,Rainwise IP-100,2013-04-19 18:20:00,
2013-04-19 13:25:00,45.0,33.0,29.98,WNW,292,1.0,12.0,64,0.00,,,0.29,Rainwise IP-100,2013-04-19 18:25:00,
2013-04-19 13:30:00,45.0,33.0,29.97,West,270,4.0,14.0,62,0.00,,,0.29,Rainwise IP-100,2013-04-19 18:30:00,
2013-04-19 13:35:00,45.0,33.0,29.97,South,180,5.0,8.0,62,0.00,,,0.29,Rainwise IP-100,2013-04-19 18:35:00,
2013-04-19 13:40:00,45.0,32.0,29.97,SW,225,9.0,15.0,59,0.00,,,0.29,Rainwise IP-100,2013-04-19 18:40:00,
2013-04-19 13:45:00,45.0,32.0,29.97,WSW,247,4.0,20.0,60,0.00,,,0.29,Rainwise IP-100,2013-04-19 18:45:00,
2013-04-19 13:50:00,45.0,32.0,29.97,NNW,337,7.0,13.0,61,0.00,,,0.29,Rainwise IP-100,2013-04-19 18:50:00,
2013-04-19 13:55:00,45.0,32.0,29.97,SW,225,0.0,12.0,61,0.00,,,0.29,Rainwise IP-100,2013-04-19 18:55:00,
2013-04-19 14:00:00,45.0,32.0,29.97,West,270,7.0,12.0,61,0.00,,,0.29,Rainwise IP-100,2013-04-19 19:00:00,
2013-04-19 14:05:00,45.0,32.0,29.97,WSW,247,7.0,15.0,60,0.00,,,0.29,Rainwise IP-100,2013-04-19 19:05:00,
2013-04-19 14:10:00,45.0,32.0,29.97,South,180,6.0,12.0,60,0.00,,,0.29,Rainwise IP-100,2013-04-19 19:10:00,
2013-04-19 14:15:00,45.0,33.0,29.97,SW,225,8.0,15.0,63,0.00,,,0.29,Rainwise IP-100,2013-04-19 19:15:00,
2013-04-19 14:21:00,45.0,32.0,29.97,SSW,202,6.0,15.0,60,0.00,,,0.29,Rainwise IP-100,2013-04-19 19:21:00,
2013-04-19 14:26:00,46.0,33.0,29.98,South,180,1.0,10.0,62,0.00,,,0.29,Rainwise IP-100,2013-04-19 19:26:00,
2013-04-19 14:31:00,46.0,33.0,29.98,West,270,10.0,13.0,60,0.00,,,0.29,Rainwise IP-100,2013-04-19 19:31:00,
2013-04-19 14:36:00,46.0,33.0,29.98,SW,225,5.0,14.0,61,0.00,,,0.29,Rainwise IP-100,2013-04-19 19:36:00,
2013-04-19 14:41:00,46.0,33.0,29.98,South,180,6.0,14.0,61,0.00,,,0.29,Rainwise IP-100,2013-04-19 19:41:00,
2013-04-19 14:46:00,46.0,33.0,29.98,South,180,4.0,16.0,60,0.00,,,0.29,Rainwise IP-100,2013-04-19 19:46:00,
2013-04-19 14:51:00,46.0,33.0,29.98,WSW,247,6.0,14.0,60,0.00,,,0.29,Rainwise IP-100,2013-04-19 19:51:00,
2013-04-19 14:56:00,46.0,33.0,29.98,SW,225,4.0,10.0,61,0.00,,,0.29,Rainwise IP-100,2013-04-19 19:56:00,
2013-04-19 15:01:00,45.0,32.0,29.98,SSW,202,6.0,14.0,59,0.00,,,0.29,Rainwise IP-100,2013-04-19 20:01:00,
2013-04-19 15:06:00,46.0,32.0,29.98,WSW,247,2.0,12.0,59,0.00,,,0.29,Rainwise IP-100,2013-04-19 20:06:00,
2013-04-19 15:11:00,46.0,32.0,29.99,South,180,7.0,12.0,58,0.00,,,0.29,Rainwise IP-100,2013-04-19 20:11:00,
2013-04-19 15:16:00,46.0,32.0,29.99,South,180,10.0,13.0,58,0.00,,,0.29,Rainwise IP-100,2013-04-19 20:16:00,
2013-04-19 15:21:00,46.0,33.0,29.99,SW,225,7.0,13.0,60,0.00,,,0.29,Rainwise IP-100,2013-04-19 20:21:00,
2013-04-19 15:26:00,46.0,33.0,29.99,WSW,247,4.0,13.0,60,0.00,,,0.29,Rainwise IP-100,2013-04-19 20:26:00,
2013-04-19 15:31:00,46.0,33.0,29.99,WNW,292,3.0,13.0,61,0.00,,,0.29,Rainwise IP-100,2013-04-19 20:31:00,
2013-04-19 15:36:00,46.0,33.0,29.99,South,180,3.0,17.0,62,0.00,,,0.29,Rainwise IP-100,2013-04-19 20:36:00,
2013-04-19 15:41:00,46.0,33.0,30.00,ESE,112,1.0,12.0,62,0.00,,,0.29,Rainwise IP-100,2013-04-19 20:41:00,
2013-04-19 15:46:00,46.0,35.0,30.00,SSE,157,7.0,13.0,63,0.00,,,0.29,Rainwise IP-100,2013-04-19 20:46:00,
2013-04-19 15:51:00,46.0,32.0,30.00,South,180,10.0,12.0,59,0.00,,,0.29,Rainwise IP-100,2013-04-19 20:51:00,
2013-04-19 15:56:00,45.0,32.0,30.00,SW,225,4.0,18.0,60,0.00,,,0.29,Rainwise IP-100,2013-04-19 20:56:00,
2013-04-19 16:01:00,46.0,33.0,30.00,SSE,157,4.0,12.0,60,0.00,,,0.29,Rainwise IP-100,2013-04-19 21:01:00,
2013-04-19 16:06:00,45.0,32.0,30.00,ESE,112,3.0,15.0,59,0.00,,,0.29,Rainwise IP-100,2013-04-19 21:06:00,
2013-04-19 16:11:00,45.0,32.0,30.00,SW,225,7.0,17.0,60,0.00,,,0.29,Rainwise IP-100,2013-04-19 21:11:00,
2013-04-19 16:16:00,45.0,33.0,30.00,SSW,202,1.0,12.0,62,0.00,,,0.29,Rainwise IP-100,2013-04-19 21:16:00,
2013-04-19 16:21:00,45.0,33.0,30.01,SW,225,6.0,15.0,62,0.00,,,0.29,Rainwise IP-100,2013-04-19 21:21:00,
2013-04-19 16:26:00,45.0,32.0,30.01,NW,315,7.0,13.0,61,0.00,,,0.29,Rainwise IP-100,2013-04-19 21:26:00,
2013-04-19 16:31:00,45.0,32.0,30.01,SW,225,10.0,10.0,61,0.00,,,0.29,Rainwise IP-100,2013-04-19 21:31:00,
2013-04-19 16:36:00,45.0,33.0,30.01,SE,135,0.0,12.0,63,0.00,,,0.29,Rainwise IP-100,2013-04-19 21:36:00,
2013-04-19 16:41:00,46.0,33.0,30.01,SSW,202,2.0,12.0,62,0.00,,,0.29,Rainwise IP-100,2013-04-19 21:41:00,
2013-04-19 16:46:00,46.0,33.0,30.01,South,180,8.0,12.0,62,0.00,,,0.29,Rainwise IP-100,2013-04-19 21:46:00,
2013-04-19 16:51:00,46.0,33.0,30.01,WSW,247,6.0,11.0,60,0.00,,,0.29,Rainwise IP-100,2013-04-19 21:51:00,
2013-04-19 16:56:00,46.0,33.0,30.01,SSW,202,2.0,11.0,60,0.00,,,0.29,Rainwise IP-100,2013-04-19 21:56:00,
2013-04-19 17:01:00,47.0,33.0,30.01,West,270,5.0,8.0,59,0.00,,,0.29,Rainwise IP-100,2013-04-19 22:01:00,
2013-04-19 17:06:00,47.0,33.0,30.01,SW,225,3.0,10.0,59,0.00,,,0.29,Rainwise IP-100,2013-04-19 22:06:00,
2013-04-19 17:11:00,47.0,33.0,30.00,SW,225,7.0,9.0,58,0.00,,,0.29,Rainwise IP-100,2013-04-19 22:11:00,
2013-04-19 17:16:00,47.0,33.0,30.00,SE,135,4.0,12.0,59,0.00,,,0.29,Rainwise IP-100,2013-04-19 22:16:00,
2013-04-19 17:21:00,48.0,35.0,30.01,SW,225,4.0,7.0,59,0.00,,,0.29,Rainwise IP-100,2013-04-19 22:21:00,
2013-04-19 17:26:00,47.0,33.0,30.01,South,180,1.0,6.0,58,0.00,,,0.29,Rainwise IP-100,2013-04-19 22:26:00,
2013-04-19 17:31:00,47.0,33.0,30.01,SW,225,4.0,11.0,58,0.00,,,0.29,Rainwise IP-100,2013-04-19 22:31:00,
2013-04-19 17:36:00,47.0,32.0,30.01,NE,45,2.0,11.0,56,0.00,,,0.29,Rainwise IP-100,2013-04-19 22:36:00,
2013-04-19 17:41:00,48.0,33.0,30.01,SW,225,5.0,9.0,56,0.00,,,0.29,Rainwise IP-100,2013-04-19 22:41:00,
2013-04-19 17:46:00,47.0,32.0,30.01,SSW,202,6.0,14.0,56,0.00,,,0.29,Rainwise IP-100,2013-04-19 22:46:00,
2013-04-19 17:51:00,48.0,33.0,30.01,WSW,247,6.0,9.0,56,0.00,,,0.29,Rainwise IP-100,2013-04-19 22:51:00,
2013-04-19 17:56:00,47.0,32.0,30.02,West,270,0.0,8.0,57,0.00,,,0.29,Rainwise IP-100,2013-04-19 22:56:00,
2013-04-19 18:01:00,47.0,33.0,30.03,South,180,6.0,13.0,60,0.00,,,0.29,Rainwise IP-100,2013-04-19 23:01:00,
2013-04-19 18:06:00,47.0,33.0,30.03,SW,225,7.0,12.0,59,0.00,,,0.29,Rainwise IP-100,2013-04-19 23:06:00,
2013-04-19 18:11:00,47.0,35.0,30.02,SW,225,0.0,7.0,62,0.00,,,0.29,Rainwise IP-100,2013-04-19 23:11:00,
2013-04-19 18:16:00,47.0,33.0,30.02,SSE,157,6.0,12.0,58,0.00,,,0.29,Rainwise IP-100,2013-04-19 23:16:00,
2013-04-19 18:21:00,48.0,33.0,30.02,WSW,247,6.0,14.0,56,0.00,,,0.29,Rainwise IP-100,2013-04-19 23:21:00,
2013-04-19 18:26:00,47.0,33.0,30.02,SW,225,0.0,13.0,58,0.00,,,0.29,Rainwise IP-100,2013-04-19 23:26:00,
2013-04-19 18:31:00,47.0,33.0,30.02,West,270,1.0,13.0,58,0.00,,,0.29,Rainwise IP-100,2013-04-19 23:31:00,
2013-04-19 18:36:00,47.0,32.0,30.02,SW,225,6.0,7.0,56,0.00,,,0.29,Rainwise IP-100,2013-04-19 23:36:00,
2013-04-19 18:41:00,48.0,33.0,30.02,WSW,247,1.0,8.0,57,0.00,,,0.29,Rainwise IP-100,2013-04-19 23:41:00,
2013-04-19 18:46:00,47.0,32.0,30.02,SSW,202,2.0,9.0,57,0.00,,,0.29,Rainwise IP-100,2013-04-19 23:46:00,
2013-04-19 18:51:00,47.0,32.0,30.02,West,270,0.0,8.0,57,0.00,,,0.29,Rainwise IP-100,2013-04-19 23:51:00,
2013-04-19 18:56:00,47.0,33.0,30.02,SSW,202,2.0,6.0,59,0.00,,,0.29,Rainwise IP-100,2013-04-19 23:56:00,
2013-04-19 19:01:00,47.0,32.0,30.02,West,270,3.0,8.0,57,0.00,,,0.29,Rainwise IP-100,2013-04-20 00:01:00,
2013-04-19 19:06:00,46.0,32.0,30.02,WSW,247,6.0,9.0,59,0.00,,,0.29,Rainwise IP-100,2013-04-20 00:06:00,
2013-04-19 19:11:00,46.0,32.0,30.03,SSW,202,6.0,9.0,58,0.00,,,0.29,Rainwise IP-100,2013-04-20 00:11:00,
2013-04-19 19:16:00,46.0,33.0,30.03,SSW,202,3.0,9.0,61,0.00,,,0.29,Rainwise IP-100,2013-04-20 00:16:00,
2013-04-19 19:21:00,46.0,33.0,30.03,West,270,2.0,6.0,61,0.00,,,0.29,Rainwise IP-100,2013-04-20 00:21:00,
2013-04-19 19:26:00,46.0,33.0,30.03,SSW,202,3.0,9.0,61,0.00,,,0.29,Rainwise IP-100,2013-04-20 00:26:00,
2013-04-19 19:31:00,46.0,35.0,30.03,SW,225,1.0,6.0,63,0.00,,,0.29,Rainwise IP-100,2013-04-20 00:31:00,
2013-04-19 19:36:00,45.0,33.0,30.03,SSW,202,5.0,7.0,62,0.00,,,0.29,Rainwise IP-100,2013-04-20 00:36:00,
2013-04-19 19:41:00,45.0,33.0,30.04,SW,225,3.0,7.0,64,0.00,,,0.29,Rainwise IP-100,2013-04-20 00:41:00,
2013-04-19 19:46:00,45.0,35.0,30.04,West,270,0.0,4.0,67,0.00,,,0.29,Rainwise IP-100,2013-04-20 00:46:00,
2013-04-19 19:51:00,45.0,35.0,30.04,SSW,202,6.0,6.0,65,0.00,,,0.29,Rainwise IP-100,2013-04-20 00:51:00,
2013-04-19 19:56:00,45.0,35.0,30.04,SW,225,1.0,7.0,67,0.00,,,0.29,Rainwise IP-100,2013-04-20 00:56:00,
2013-04-19 20:01:00,44.0,33.0,30.05,SW,225,0.0,3.0,67,0.00,,,0.29,Rainwise IP-100,2013-04-20 01:01:00,
2013-04-19 20:06:00,44.0,35.0,30.05,SW,225,1.0,2.0,68,0.00,,,0.29,Rainwise IP-100,2013-04-20 01:06:00,
2013-04-19 20:11:00,44.0,35.0,30.05,South,180,3.0,6.0,69,0.00,,,0.29,Rainwise IP-100,2013-04-20 01:11:00,
2013-04-19 20:16:00,44.0,36.0,30.05,SW,225,0.0,4.0,71,0.00,,,0.29,Rainwise IP-100,2013-04-20 01:16:00,
2013-04-19 20:21:00,44.0,35.0,30.05,SSW,202,1.0,3.0,69,0.00,,,0.29,Rainwise IP-100,2013-04-20 01:21:00,
2013-04-19 20:26:00,44.0,35.0,30.06,SW,225,3.0,3.0,69,0.00,,,0.29,Rainwise IP-100,2013-04-20 01:26:00,
2013-04-19 20:31:00,44.0,35.0,30.06,SSW,202,2.0,4.0,70,0.00,,,0.29,Rainwise IP-100,2013-04-20 01:31:00,
2013-04-19 20:36:00,43.0,35.0,30.06,SW,225,4.0,4.0,72,0.00,,,0.29,Rainwise IP-100,2013-04-20 01:36:00,
2013-04-19 20:41:00,44.0,35.0,30.06,SSW,202,2.0,6.0,70,0.00,,,0.29,Rainwise IP-100,2013-04-20 01:41:00,
2013-04-19 20:46:00,44.0,36.0,30.06,SW,225,0.0,7.0,71,0.00,,,0.29,Rainwise IP-100,2013-04-20 01:46:00,
2013-04-19 20:51:00,44.0,35.0,30.07,SW,225,0.0,1.0,70,0.00,,,0.29,Rainwise IP-100,2013-04-20 01:51:00,
2013-04-19 20:56:00,44.0,36.0,30.07,SW,225,1.0,4.0,71,0.00,,,0.29,Rainwise IP-100,2013-04-20 01:56:00,
2013-04-19 21:01:00,45.0,37.0,30.07,SSW,202,2.0,6.0,72,0.00,,,0.29,Rainwise IP-100,2013-04-20 02:01:00,
2013-04-19 21:06:00,44.0,37.0,30.07,SSE,157,0.0,4.0,76,0.00,,,0.29,Rainwise IP-100,2013-04-20 02:06:00,
2013-04-19 21:11:00,44.0,37.0,30.07,SSE,157,0.0,0.0,76,0.00,,,0.29,Rainwise IP-100,2013-04-20 02:11:00,
2013-04-19 21:16:00,44.0,37.0,30.08,SSE,157,0.0,2.0,75,0.00,,,0.29,Rainwise IP-100,2013-04-20 02:16:00,
2013-04-19 21:21:00,44.0,37.0,30.08,SSE,157,0.0,0.0,76,0.00,,,0.29,Rainwise IP-100,2013-04-20 02:21:00,
2013-04-19 21:26:00,44.0,37.0,30.08,SSE,157,1.0,2.0,76,0.00,,,0.29,Rainwise IP-100,2013-04-20 02:26:00,
2013-04-19 21:31:00,45.0,37.0,30.08,SSE,157,3.0,3.0,74,0.00,,,0.29,Rainwise IP-100,2013-04-20 02:31:00,
2013-04-19 21:36:00,45.0,38.0,30.07,SSE,157,1.0,4.0,75,0.00,,,0.29,Rainwise IP-100,2013-04-20 02:36:00,
2013-04-19 21:41:00,44.0,37.0,30.08,SE,135,0.0,5.0,77,0.00,,,0.29,Rainwise IP-100,2013-04-20 02:41:00,
2013-04-19 21:46:00,44.0,38.0,30.08,SSE,157,3.0,5.0,79,0.00,,,0.29,Rainwise IP-100,2013-04-20 02:46:00,
2013-04-19 21:51:00,44.0,38.0,30.08,SSE,157,4.0,5.0,79,0.00,,,0.29,Rainwise IP-100,2013-04-20 02:51:00,
2013-04-19 21:56:00,43.0,38.0,30.08,South,180,4.0,6.0,81,0.00,,,0.29,Rainwise IP-100,2013-04-20 02:56:00,
2013-04-19 22:01:00,43.0,38.0,30.09,South,180,2.0,5.0,83,0.00,,,0.29,Rainwise IP-100,2013-04-20 03:01:00,
2013-04-19 22:06:00,42.0,38.0,30.09,SSW,202,2.0,5.0,86,0.00,,,0.29,Rainwise IP-100,2013-04-20 03:06:00,
2013-04-19 22:11:00,42.0,38.0,30.09,South,180,1.0,3.0,86,0.00,,,0.29,Rainwise IP-100,2013-04-20 03:11:00,
2013-04-19 22:16:00,42.0,39.0,30.09,South,180,2.0,4.0,88,0.00,,,0.29,Rainwise IP-100,2013-04-20 03:16:00,
2013-04-19 22:21:00,41.0,38.0,30.10,South,180,1.0,3.0,90,0.00,,,0.29,Rainwise IP-100,2013-04-20 03:21:00,
2013-04-19 22:26:00,41.0,39.0,30.10,South,180,3.0,3.0,92,0.00,,,0.29,Rainwise IP-100,2013-04-20 03:26:00,
2013-04-19 22:31:00,41.0,39.0,30.09,South,180,2.0,3.0,91,0.00,,,0.29,Rainwise IP-100,2013-04-20 03:31:00,
2013-04-19 22:36:00,41.0,39.0,30.09,South,180,2.0,4.0,91,0.00,,,0.29,Rainwise IP-100,2013-04-20 03:36:00,
2013-04-19 22:41:00,41.0,39.0,30.09,South,180,2.0,3.0,91,0.00,,,0.29,Rainwise IP-100,2013-04-20 03:41:00,
2013-04-19 22:46:00,41.0,38.0,30.10,South,180,2.0,3.0,90,0.00,,,0.29,Rainwise IP-100,2013-04-20 03:46:00,
2013-04-19 22:51:00,41.0,38.0,30.10,SW,225,4.0,4.0,89,0.00,,,0.29,Rainwise IP-100,2013-04-20 03:51:00,
2013-04-19 22:56:00,41.0,38.0,30.10,SW,225,3.0,4.0,88,0.00,,,0.29,Rainwise IP-100,2013-04-20 03:56:00,
2013-04-19 23:01:00,41.0,37.0,30.10,SW,225,5.0,5.0,86,0.00,,,0.29,Rainwise IP-100,2013-04-20 04:01:00,
2013-04-19 23:06:00,42.0,38.0,30.09,SW,225,3.0,5.0,84,0.00,,,0.29,Rainwise IP-100,2013-04-20 04:06:00,
2013-04-19 23:11:00,42.0,37.0,30.09,SW,225,3.0,6.0,82,0.00,,,0.29,Rainwise IP-100,2013-04-20 04:11:00,
2013-04-19 23:16:00,41.0,37.0,30.09,SW,225,3.0,5.0,85,0.00,,,0.29,Rainwise IP-100,2013-04-20 04:16:00,
2013-04-19 23:21:00,41.0,37.0,30.09,SSW,202,2.0,4.0,85,0.00,,,0.29,Rainwise IP-100,2013-04-20 04:21:00,
2013-04-19 23:26:00,42.0,38.0,30.10,SW,225,2.0,6.0,84,0.00,,,0.29,Rainwise IP-100,2013-04-20 04:26:00,
2013-04-19 23:31:00,42.0,38.0,30.10,SW,225,2.0,5.0,85,0.00,,,0.29,Rainwise IP-100,2013-04-20 04:31:00,
2013-04-19 23:36:00,41.0,38.0,30.10,SW,225,2.0,4.0,87,0.00,,,0.29,Rainwise IP-100,2013-04-20 04:36:00,
2013-04-19 23:41:00,41.0,37.0,30.10,SSW,202,4.0,5.0,86,0.00,,,0.29,Rainwise IP-100,2013-04-20 04:41:00,
2013-04-19 23:46:00,42.0,38.0,30.10,SW,225,4.0,5.0,85,0.00,,,0.29,Rainwise IP-100,2013-04-20 04:46:00,
2013-04-19 23:51:00,42.0,37.0,30.10,SW,225,2.0,6.0,82,0.00,,,0.29,Rainwise IP-100,2013-04-20 04:51:00,
2013-04-19 23:56:00,41.0,37.0,30.10,SW,225,2.0,4.0,85,0.00,,,0.29,Rainwise IP-100,2013-04-20 04:56:00,